Change the Weather History Date:

Monday, January 20, 2014

  Actual Average Record
Temperature  
Mean Temperature 31 °F 30 °F  
Max Temperature 32 °F 37 °F 50 °F (2002)
Min Temperature 30 °F 24 °F 6 °F (2012)
Degree Days  
Heating Degree Days 34 34  
Month to date heating degree days 617 718  
Since 1 July heating degree days 3301 3305  
Cooling Degree Days 0 0  
Month to date cooling degree days 0 0  
Year to date cooling degree days 0 0  
Moisture  
Dew Point 27 °F    
Average Humidity 85    
Maximum Humidity 92    
Minimum Humidity 78    
Precipitation  
Precipitation 0.00 in 0.03 in 0.55 in (1985)
Month to date precipitation 0.04 0.87  
Year to date precipitation 0.04 0.87  
Sea Level Pressure  
Sea Level Pressure 30.55 in    
Wind  
Wind Speed 4 mph (NNE)    
Max Wind Speed 9 mph    
Max Gust Speed 15 mph    
Visibility 10 miles    
Events      
T = Trace of Precipitation, MM = Missing Value Source: NWS Daily Summary

Daily Weather History Graph

Daily Weather History Graph

Search for Another Location

Airport or City:

Trip Planner

Search our weather history database for the weather conditions in past years. The results will help you decide how hot, cold, wet, or windy it might be!

Date:

Astronomy

Jan. 20, 2014 Rise Set
Actual Time 7:35 AM PST 4:41 PM PST
Civil Twilight 7:01 AM PST 5:15 PM PST
Nautical Twilight 6:24 AM PST 5:53 PM PST
Astronomical Twilight 5:47 AM PST 6:29 PM PST
Moon 9:43 PM PST (1/20) 9:17 AM PST (1/20)
Length of Visible Light 10h 14m
Length of Day
9h 06m
Waning Gibbous, 82% of the Moon is Illuminated
Jan 20
Waning Gibbous
Jan 23
Last Quarter
Jan 30
New
Feb 6
First Quarter
Feb 14
Full

Hourly Weather History & Observations

Time (PST) Temp. Windchill Dew Point Humidity Pressure Visibility Wind Dir Wind Speed Gust Speed Precip Events Conditions
12:52 AM 32.0 °F - 28.0 °F 85% 30.47 in 10.0 mi Calm Calm - N/A   Overcast
1:52 AM 32.0 °F - 28.0 °F 85% 30.49 in 10.0 mi Calm Calm - N/A   Overcast
2:52 AM 32.0 °F 26.4 °F 28.0 °F 85% 30.51 in 10.0 mi NNE 5.8 mph - N/A   Overcast
3:33 AM 32.0 °F - 28.4 °F 87% 30.48 in 10.0 mi Calm Calm - N/A   Overcast
3:52 AM 32.0 °F 26.4 °F 28.0 °F 85% 30.53 in 10.0 mi NE 5.8 mph - N/A   Overcast
4:52 AM 30.9 °F 27.5 °F 28.0 °F 89% 30.54 in 10.0 mi NE 3.5 mph - N/A   Overcast
5:52 AM 30.9 °F 27.5 °F 28.0 °F 89% 30.55 in 10.0 mi NNW 3.5 mph - N/A   Overcast
6:52 AM 30.9 °F 27.5 °F 28.0 °F 89% 30.56 in 10.0 mi North 3.5 mph - N/A   Overcast
7:52 AM 30.9 °F 24.3 °F 27.0 °F 85% 30.57 in 10.0 mi ENE 6.9 mph - N/A   Overcast
8:52 AM 30.9 °F 25.2 °F 27.0 °F 85% 30.58 in 10.0 mi ENE 5.8 mph - N/A   Overcast
9:52 AM 30.9 °F 26.2 °F 27.0 °F 85% 30.60 in 9.0 mi NE 4.6 mph - N/A   Overcast
10:52 AM 30.9 °F 23.5 °F 27.0 °F 85% 30.60 in 10.0 mi ENE 8.1 mph - N/A   Overcast
11:52 AM 32.0 °F 27.5 °F 27.0 °F 82% 30.59 in 10.0 mi ENE 4.6 mph - N/A   Overcast
12:52 PM 32.0 °F 28.7 °F 27.0 °F 82% 30.56 in 10.0 mi East 3.5 mph - N/A   Overcast
1:52 PM 32.0 °F 28.7 °F 27.0 °F 82% 30.55 in 10.0 mi NE 3.5 mph - N/A   Overcast
2:52 PM 32.0 °F - 27.0 °F 82% 30.55 in 10.0 mi Calm Calm - N/A   Overcast
3:52 PM 32.0 °F 27.5 °F 27.0 °F 82% 30.54 in 10.0 mi North 4.6 mph - N/A   Overcast
4:52 PM 32.0 °F 27.5 °F 27.0 °F 82% 30.55 in 10.0 mi NNE 4.6 mph - N/A   Overcast
5:52 PM 30.9 °F - 27.0 °F 85% 30.55 in 10.0 mi Calm Calm - N/A   Overcast
6:52 PM 30.9 °F 27.5 °F 27.0 °F 85% 30.55 in 10.0 mi NNW 3.5 mph - N/A   Overcast
7:52 PM 30.9 °F 26.2 °F 27.0 °F 85% 30.55 in 10.0 mi NW 4.6 mph - N/A   Overcast
8:52 PM 30.9 °F 26.2 °F 27.0 °F 85% 30.54 in 10.0 mi NW 4.6 mph - N/A   Overcast
9:52 PM 30.9 °F 27.5 °F 27.0 °F 85% 30.55 in 10.0 mi WNW 3.5 mph - N/A   Overcast
10:52 PM 30.0 °F - 28.0 °F 92% 30.55 in 8.0 mi Calm Calm - N/A   Overcast
11:52 PM 30.0 °F - 28.0 °F 92% 30.55 in 6.0 mi Calm Calm - N/A   Overcast